Belmar-Farmingdale, NJ

9:43 PM EST on December 14, 2019 (GMT -0500)
Allaire

Weather History for KBLM - October, 2019

Change the Weather History Date:

Wednesday, October 2, 2019

  Actual Average Record
Temperature  
Mean Temperature 81 °F -  
Max Temperature 93 °F 65 °F 84 °F (2002)
Min Temperature 69 °F 50 °F 35 °F (1997)
Cooling Degree Days 16    
Growing Degree Days 31 (Base 50)    
Moisture  
Dew Point 68 °F    
Average Humidity 71    
Maximum Humidity 93    
Minimum Humidity 42    
Precipitation  
Precipitation 0.04 in - - ()
Sea Level Pressure  
Sea Level Pressure 29.86 in    
Wind  
Wind Speed 9 mph ()    
Max Wind Speed 22 mph    
Max Gust Speed 28 mph    
Visibility 10.0 miles    
Events Rain    
Averages and records for this station are not official NWS values.
T = Trace of Precipitation, MM = Missing Value Source: Averaged Metar Reports

Daily Weather History Graph

Daily Weather History Graph

Search for Another Location

Airport or City:

Astronomy

Oct. 02, 2019 Rise Set
Actual Time 6:53 AM EDT 6:37 PM EDT
Civil Twilight 6:26 AM EDT 7:04 PM EDT
Nautical Twilight 5:55 AM EDT 7:35 PM EDT
Astronomical Twilight 5:23 AM EDT 8:07 PM EDT
Moon 11:16 AM EDT (10/2) 9:29 PM EDT (10/2)
Length of Visible Light 12h 38m
Length of Day
11h 43m
Waxing Crescent, 20% of the Moon is Illuminated
Oct 2
Waxing Crescent
Oct 5
First Quarter
Oct 13
Full
Oct 21
Last Quarter
Oct 27
New

Hourly Weather History & Observations

Time (EDT) Temp. Heat Index Dew Point Humidity Pressure Visibility Wind Dir Wind Speed Gust Speed Precip Events Conditions
12:56 AM 71.1 °F - 64.9 °F 81% 29.91 in 10.0 mi SW 8.1 mph - N/A   Clear
2:56 AM 70.0 °F - 66.0 °F 87% 29.89 in 10.0 mi SW 10.4 mph - N/A   Clear
3:56 AM 70.0 °F - 66.0 °F 87% 29.89 in 10.0 mi SW 9.2 mph - N/A   Clear
4:56 AM 69.1 °F - 66.0 °F 90% 29.88 in 10.0 mi WSW 9.2 mph - N/A   Clear
5:56 AM 69.1 °F - 66.9 °F 93% 29.88 in 10.0 mi SW 10.4 mph - N/A   Clear
6:56 AM 69.1 °F - 66.9 °F 93% 29.88 in 10.0 mi SW 9.2 mph - N/A   Clear
7:56 AM 71.1 °F - 68.0 °F 90% 29.89 in 10.0 mi WSW 9.2 mph - N/A   Clear
8:56 AM 75.0 °F - 69.1 °F 82% 29.90 in 10.0 mi WSW 8.1 mph - N/A   Clear
9:56 AM 79.0 °F - 70.0 °F 74% 29.88 in 10.0 mi West 10.4 mph - N/A   Clear
10:56 AM 84.9 °F 89.4 °F 70.0 °F 61% 29.86 in 10.0 mi WSW 10.4 mph - N/A   Clear
11:56 AM 89.1 °F 93.7 °F 69.1 °F 52% 29.84 in 10.0 mi WSW 10.4 mph - N/A   Clear
12:56 PM 91.9 °F 95.9 °F 68.0 °F 45% 29.82 in 10.0 mi West 11.5 mph 19.6 mph N/A   Clear
1:56 PM 91.9 °F 95.9 °F 68.0 °F 45% 29.80 in 10.0 mi West 13.8 mph 18.4 mph N/A   Clear
2:56 PM 93.0 °F 96.4 °F 66.9 °F 42% 29.78 in 10.0 mi WSW 15.0 mph 21.9 mph N/A   Clear
3:56 PM 91.9 °F 94.5 °F 66.0 °F 42% 29.77 in 10.0 mi West 12.7 mph - N/A   Clear
4:56 PM 90.0 °F 92.8 °F 66.9 °F 46% 29.77 in 10.0 mi West 11.5 mph - N/A   Clear
5:56 PM 88.0 °F 90.3 °F 66.0 °F 48% 29.78 in 10.0 mi West 9.2 mph - N/A   Clear
6:56 PM 84.9 °F 87.6 °F 66.9 °F 55% 29.79 in 10.0 mi WSW 4.6 mph - N/A   Clear
7:45 PM 82.4 °F 86.3 °F 69.8 °F 66% 29.84 in 10.0 mi North 12.7 mph 23.0 mph N/A   Clear
7:56 PM 81.0 °F 84.1 °F 69.1 °F 67% 29.85 in 10.0 mi NNW 21.9 mph 27.6 mph N/A   Scattered Clouds
8:56 PM 73.0 °F - 71.1 °F 93% 29.88 in 10.0 mi Calm Calm - 0.04 in Rain Light Rain
9:56 PM 73.0 °F - 70.0 °F 90% 29.91 in 10.0 mi North 9.2 mph - 0.00 in   Overcast
10:56 PM 72.0 °F - 66.9 °F 84% 29.95 in 10.0 mi NNE 9.2 mph - 0.00 in Rain Light Rain
11:56 PM 69.1 °F - 66.9 °F 93% 29.96 in 10.0 mi ENE 10.4 mph - 0.00 in   Overcast